Pine Bluff, AR

9:35 AM CDT on June 25, 2017 (GMT -0500)
Grider

Weather History for KPBF - July, 2013

Change the Weather History Date:

Sunday, July 14, 2013

  Actual Average Record
Temperature  
Mean Temperature 76 °F 82 °F  
Max Temperature 89 °F 92 °F 107 °F (1980)
Min Temperature 63 °F 72 °F 58 °F (1897)
Degree Days  
Heating Degree Days 0 0  
Month to date heating degree days 0 0  
Since 1 June heating degree days 0 0  
Since 1 July heating degree days 0 0  
Cooling Degree Days 11 17  
Month to date cooling degree days 195 237  
Year to date cooling degree days 883 966  
Since 1 June cooling degree days 616 659  
Growing Degree Days 25 (Base 50)    
Moisture  
Dew Point 66 °F    
Average Humidity 68    
Maximum Humidity 93    
Minimum Humidity 43    
Precipitation  
Precipitation 0.03 in 0.13 in 2.05 in (1948)
Month to date precipitation 0.03 1.76  
Year to date precipitation 29.45 28.54  
Snow  
Snow 0.00 in 0.00 in - ()
Month to date snowfall 0.0 0.0  
Since 1 June snowfall 0.0 0.0  
Since 1 July snowfall 0.0 0.0  
Snow Depth 0.00 in    
Sea Level Pressure  
Sea Level Pressure 29.99 in    
Wind  
Wind Speed 4 mph (ENE)    
Max Wind Speed 21 mph    
Max Gust Speed 26 mph    
Visibility 10 miles    
Events Rain , Thunderstorm    
T = Trace of Precipitation, MM = Missing Value Source: NWS Daily Summary

Daily Weather History Graph

Daily Weather History Graph

Search for Another Location

Airport or City:

Trip Planner

Search our weather history database for the weather conditions in past years. The results will help you decide how hot, cold, wet, or windy it might be!

Date:

Astronomy

Jul. 14, 2013 Rise Set
Actual Time 6:06 AM CDT 8:20 PM CDT
Civil Twilight 5:38 AM CDT 8:48 PM CDT
Nautical Twilight 5:03 AM CDT 9:23 PM CDT
Astronomical Twilight 4:25 AM CDT 10:01 PM CDT
Moon 12:04 PM CDT (7/14) 11:53 PM CDT (7/14)
Length of Visible Light 15h 10m
Length of Day
14h 13m
Waxing Crescent, 35% of the Moon is Illuminated
Jul 14
Waxing Crescent
Jul 15
First Quarter
Jul 22
Full
Jul 29
Last Quarter
Aug 6
New

Hourly Weather History & Observations

Time (CDT) Temp. Heat Index Dew Point Humidity Pressure Visibility Wind Dir Wind Speed Gust Speed Precip Events Conditions
12:53 AM 70.0 °F - 63.0 °F 78% 29.97 in 10.0 mi Calm Calm - N/A   Clear
1:53 AM 69.1 °F - 62.1 °F 78% 29.96 in 10.0 mi Calm Calm - N/A   Clear
2:53 AM 68.0 °F - 62.1 °F 81% 29.95 in 10.0 mi NE 3.5 mph - N/A   Clear
3:53 AM 66.0 °F - 62.1 °F 87% 29.96 in 10.0 mi North 3.5 mph - N/A   Clear
4:53 AM 66.0 °F - 62.1 °F 87% 29.97 in 10.0 mi NNW 3.5 mph - N/A   Clear
5:53 AM 63.0 °F - 61.0 °F 93% 29.97 in 7.0 mi Calm Calm - N/A   Clear
6:53 AM 66.0 °F - 63.0 °F 90% 29.98 in 8.0 mi Calm Calm - N/A   Clear
7:53 AM 68.0 °F - 64.0 °F 87% 29.99 in 9.0 mi Calm Calm - N/A   Clear
8:53 AM 72.0 °F - 66.0 °F 81% 30.00 in 10.0 mi North 4.6 mph - N/A   Clear
9:53 AM 79.0 °F - 66.9 °F 66% 30.01 in 10.0 mi NNE 5.8 mph - N/A   Partly Cloudy
10:53 AM 82.0 °F 84.9 °F 68.0 °F 62% 30.02 in 10.0 mi SE 6.9 mph - N/A   Mostly Cloudy
11:53 AM 84.9 °F 88.8 °F 69.1 °F 59% 30.02 in 10.0 mi East 6.9 mph - N/A   Clear
12:53 PM 87.1 °F 87.8 °F 63.0 °F 44% 30.01 in 10.0 mi SE 4.6 mph - N/A   Partly Cloudy
1:53 PM 86.0 °F 88.2 °F 66.0 °F 51% 29.99 in 10.0 mi ESE 4.6 mph - N/A   Partly Cloudy
2:53 PM 84.9 °F 87.6 °F 66.9 °F 55% 29.99 in 10.0 mi East 5.8 mph - 0.00 in Rain , Thunderstorm Light Rain
3:46 PM 77.0 °F - 64.4 °F 65% 29.99 in 10.0 mi North 5.8 mph - 0.00 in   Partly Cloudy
3:53 PM 78.1 °F - 64.0 °F 62% 29.99 in 10.0 mi NE 5.8 mph - 0.00 in   Clear
4:53 PM 82.9 °F 85.8 °F 68.0 °F 60% 29.97 in 10.0 mi Calm Calm - N/A   Clear
5:53 PM 81.0 °F 84.4 °F 70.0 °F 69% 29.97 in 10.0 mi North 6.9 mph - N/A   Mostly Cloudy
6:53 PM 82.0 °F 84.9 °F 68.0 °F 62% 29.98 in 10.0 mi ENE 8.1 mph - N/A   Clear
7:53 PM 81.0 °F 83.0 °F 66.0 °F 60% 29.99 in 10.0 mi Calm Calm - N/A   Clear
8:50 PM 78.8 °F - 69.8 °F 74% 30.01 in 10.0 mi ESE 4.6 mph - N/A Thunderstorm Thunderstorm
8:53 PM 78.1 °F - 69.1 °F 74% 30.01 in 8.0 mi SSE 10.4 mph - 0.01 in Rain , Thunderstorm Light Thunderstorms and Rain
9:16 PM 75.2 °F - 68.0 °F 78% 30.01 in 10.0 mi Calm Calm - 0.01 in   Mostly Cloudy
9:53 PM 75.0 °F - 71.1 °F 87% 30.01 in 10.0 mi Calm Calm - 0.01 in   Mostly Cloudy
10:53 PM 73.9 °F - 71.1 °F 91% 30.03 in 10.0 mi NE 3.5 mph - 0.00 in   Scattered Clouds
11:53 PM 73.0 °F - 71.1 °F 93% 30.05 in 10.0 mi SE 5.8 mph - N/A   Clear